Time,TemperatureF,DewpointF,PressureIn,WindDirection,WindDirectionDegrees,WindSpeedMPH,WindSpeedGustMPH,Humidity,HourlyPrecipIn,Conditions,Clouds,dailyrainin,SoftwareType,DateUTC
2014-01-14 00:02:00,48.6,38.5,29.85,SE,139,2.0,5.0,68,0.00,,,0.00,Wunderground v.1.15,2014-01-14 05:02:00,
2014-01-14 00:03:00,48.5,38.0,29.84,SSE,152,3.0,5.0,67,0.00,,,0.00,Wunderground v.1.15,2014-01-14 05:03:00,
2014-01-14 00:04:00,48.6,38.5,29.84,SSE,150,3.0,5.0,68,0.00,,,0.00,Wunderground v.1.15,2014-01-14 05:04:00,
2014-01-14 00:05:00,48.5,38.0,29.84,ESE,113,3.0,5.0,67,0.00,,,0.00,Wunderground v.1.15,2014-01-14 05:05:00,
2014-01-14 00:09:00,48.5,38.4,29.84,South,181,3.0,6.0,68,0.00,,,0.00,Wunderground v.1.15,2014-01-14 05:09:00,
2014-01-14 00:10:00,48.5,38.4,29.84,SSW,198,3.0,6.0,68,0.00,,,0.00,Wunderground v.1.15,2014-01-14 05:10:00,
2014-01-14 00:15:00,48.3,38.2,29.83,SW,228,2.0,3.0,68,0.00,,,0.00,Wunderground v.1.15,2014-01-14 05:15:00,
2014-01-14 00:21:00,48.2,38.1,29.83,SSW,207,1.0,1.0,68,0.00,,,0.00,Wunderground v.1.15,2014-01-14 05:21:00,
2014-01-14 00:29:00,48.2,38.1,29.83,SSE,161,1.0,4.0,68,0.00,,,0.00,Wunderground v.1.15,2014-01-14 05:29:00,
2014-01-14 00:34:00,48.3,38.2,29.83,ESE,120,2.0,4.0,68,0.00,,,0.00,Wunderground v.1.15,2014-01-14 05:34:00,
2014-01-14 00:39:00,48.3,38.2,29.83,SE,137,3.0,6.0,68,0.00,,,0.00,Wunderground v.1.15,2014-01-14 05:39:00,
2014-01-14 00:46:00,48.2,38.5,29.83,SW,221,2.0,3.0,69,0.00,,,0.00,Wunderground v.1.15,2014-01-14 05:46:00,
2014-01-14 00:51:00,48.1,38.4,29.84,SSW,195,2.0,2.0,69,0.00,,,0.00,Wunderground v.1.15,2014-01-14 05:51:00,
2014-01-14 00:56:00,48.1,38.4,29.84,ESE,105,2.0,3.0,69,0.00,,,0.00,Wunderground v.1.15,2014-01-14 05:56:00,
2014-01-14 01:02:00,48.1,38.4,29.83,SSW,208,2.0,2.0,69,0.00,,,0.00,Wunderground v.1.15,2014-01-14 06:02:00,
2014-01-14 01:07:00,48.0,38.3,29.83,South,190,1.0,4.0,69,0.00,,,0.00,Wunderground v.1.15,2014-01-14 06:07:00,
2014-01-14 01:12:00,48.0,38.3,29.83,ESE,102,2.0,2.0,69,0.00,,,0.00,Wunderground v.1.15,2014-01-14 06:12:00,
2014-01-14 01:18:00,48.0,38.3,29.83,South,189,2.0,2.0,69,0.00,,,0.00,Wunderground v.1.15,2014-01-14 06:18:00,
2014-01-14 01:23:00,48.0,38.3,29.83,SE,127,2.0,3.0,69,0.00,,,0.00,Wunderground v.1.15,2014-01-14 06:23:00,
2014-01-14 01:28:00,47.9,38.2,29.82,SSW,197,2.0,3.0,69,0.00,,,0.00,Wunderground v.1.15,2014-01-14 06:28:00,
2014-01-14 01:33:00,47.9,38.2,29.82,ESE,104,2.0,2.0,69,0.00,,,0.00,Wunderground v.1.15,2014-01-14 06:33:00,
2014-01-14 01:39:00,47.9,38.2,29.82,SW,224,2.0,3.0,69,0.00,,,0.00,Wunderground v.1.15,2014-01-14 06:39:00,
2014-01-14 01:41:00,47.9,38.2,29.83,SSW,200,1.0,1.0,69,0.00,,,0.00,Wunderground v.1.15,2014-01-14 06:41:00,
2014-01-14 01:46:00,47.8,38.5,29.82,SW,217,1.0,2.0,70,0.00,,,0.00,Wunderground v.1.15,2014-01-14 06:46:00,
2014-01-14 01:52:00,47.6,38.3,29.82,SSW,207,1.0,1.0,70,0.00,,,0.00,Wunderground v.1.15,2014-01-14 06:52:00,
2014-01-14 01:58:00,47.4,38.5,29.82,East,98,0.0,1.0,71,0.00,,,0.00,Wunderground v.1.15,2014-01-14 06:58:00,
2014-01-14 02:04:00,47.3,38.4,29.82,ESE,119,1.0,5.0,71,0.00,,,0.00,Wunderground v.1.15,2014-01-14 07:04:00,
2014-01-14 02:10:00,47.5,38.6,29.82,SSE,167,2.0,5.0,71,0.00,,,0.00,Wunderground v.1.15,2014-01-14 07:10:00,
2014-01-14 02:15:00,47.5,38.6,29.83,SW,217,2.0,3.0,71,0.00,,,0.00,Wunderground v.1.15,2014-01-14 07:15:00,
2014-01-14 02:21:00,47.6,38.7,29.82,WSW,255,2.0,3.0,71,0.00,,,0.00,Wunderground v.1.15,2014-01-14 07:21:00,
2014-01-14 02:26:00,47.6,39.0,29.83,SSW,210,2.0,5.0,72,0.00,,,0.00,Wunderground v.1.15,2014-01-14 07:26:00,
2014-01-14 02:32:00,47.5,39.3,29.83,SW,217,2.0,6.0,73,0.00,,,0.00,Wunderground v.1.15,2014-01-14 07:32:00,
2014-01-14 02:37:00,47.4,39.5,29.83,SSW,203,3.0,7.0,74,0.00,,,0.00,Wunderground v.1.15,2014-01-14 07:37:00,
2014-01-14 02:43:00,47.2,39.7,29.82,WSW,245,3.0,5.0,75,0.00,,,0.00,Wunderground v.1.15,2014-01-14 07:43:00,
2014-01-14 02:49:00,46.9,39.7,29.83,SSW,211,2.0,7.0,76,0.00,,,0.00,Wunderground v.1.15,2014-01-14 07:49:00,
2014-01-14 02:55:00,46.8,40.0,29.83,South,184,2.0,4.0,77,0.00,,,0.00,Wunderground v.1.15,2014-01-14 07:55:00,
2014-01-14 03:01:00,46.5,40.3,29.82,SSE,149,2.0,2.0,79,0.00,,,0.00,Wunderground v.1.15,2014-01-14 08:01:00,
2014-01-14 03:06:00,46.1,40.3,29.82,SE,129,2.0,7.0,80,0.00,,,0.01,Wunderground v.1.15,2014-01-14 08:06:00,
2014-01-14 03:12:00,45.7,40.2,29.81,ESE,110,2.0,3.0,81,0.00,,,0.01,Wunderground v.1.15,2014-01-14 08:12:00,
2014-01-14 03:17:00,45.5,40.3,29.80,SSE,166,3.0,5.0,82,0.00,,,0.01,Wunderground v.1.15,2014-01-14 08:17:00,
2014-01-14 03:23:00,45.3,40.4,29.81,SSE,159,4.0,4.0,83,0.00,,,0.01,Wunderground v.1.15,2014-01-14 08:23:00,
2014-01-14 03:29:00,45.3,40.7,29.81,West,260,2.0,4.0,84,0.00,,,0.01,Wunderground v.1.15,2014-01-14 08:29:00,
2014-01-14 03:35:00,45.5,40.9,29.81,SSW,205,3.0,6.0,84,0.00,,,0.01,Wunderground v.1.15,2014-01-14 08:35:00,
2014-01-14 03:41:00,45.7,41.1,29.80,SSW,198,4.0,4.0,84,0.00,,,0.01,Wunderground v.1.15,2014-01-14 08:41:00,
2014-01-14 03:46:00,45.8,41.2,29.80,SE,146,3.0,4.0,84,0.00,,,0.01,Wunderground v.1.15,2014-01-14 08:46:00,
2014-01-14 03:51:00,45.9,41.3,29.80,SW,228,3.0,3.0,84,0.00,,,0.01,Wunderground v.1.15,2014-01-14 08:51:00,
2014-01-14 03:57:00,45.9,41.3,29.80,SSE,150,2.0,5.0,84,0.00,,,0.01,Wunderground v.1.15,2014-01-14 08:57:00,
2014-01-14 04:03:00,45.9,41.3,29.80,South,181,3.0,5.0,84,0.00,,,0.01,Wunderground v.1.15,2014-01-14 09:03:00,
2014-01-14 04:09:00,45.9,41.3,29.80,SSE,152,3.0,5.0,84,0.00,,,0.01,Wunderground v.1.15,2014-01-14 09:09:00,
2014-01-14 04:14:00,45.9,41.6,29.80,SE,144,3.0,4.0,85,0.00,,,0.01,Wunderground v.1.15,2014-01-14 09:14:00,
2014-01-14 04:19:00,45.9,41.6,29.80,South,187,2.0,4.0,85,0.00,,,0.01,Wunderground v.1.15,2014-01-14 09:19:00,
2014-01-14 04:24:00,45.8,41.9,29.80,SE,138,3.0,5.0,86,0.00,,,0.01,Wunderground v.1.15,2014-01-14 09:24:00,
2014-01-14 04:29:00,45.7,42.1,29.80,SSW,211,3.0,5.0,87,0.00,,,0.01,Wunderground v.1.15,2014-01-14 09:29:00,
2014-01-14 04:35:00,45.7,42.1,29.78,East,98,2.0,5.0,87,0.00,,,0.01,Wunderground v.1.15,2014-01-14 09:35:00,
2014-01-14 04:41:00,45.8,42.2,29.78,South,174,3.0,3.0,87,0.00,,,0.01,Wunderground v.1.15,2014-01-14 09:41:00,
2014-01-14 04:46:00,45.9,42.2,29.78,East,83,3.0,5.0,87,0.00,,,0.01,Wunderground v.1.15,2014-01-14 09:46:00,
2014-01-14 04:51:00,46.0,42.3,29.78,SW,217,3.0,3.0,87,0.00,,,0.01,Wunderground v.1.15,2014-01-14 09:51:00,
2014-01-14 04:57:00,46.2,42.5,29.78,SSE,167,3.0,4.0,87,0.00,,,0.01,Wunderground v.1.15,2014-01-14 09:57:00,
2014-01-14 05:02:00,46.3,42.6,29.77,SW,222,3.0,3.0,87,0.00,,,0.01,Wunderground v.1.15,2014-01-14 10:02:00,
2014-01-14 05:08:00,46.4,42.7,29.76,SW,219,2.0,3.0,87,0.00,,,0.01,Wunderground v.1.15,2014-01-14 10:08:00,
2014-01-14 05:14:00,46.5,42.8,29.76,SE,145,1.0,2.0,87,0.00,,,0.01,Wunderground v.1.15,2014-01-14 10:14:00,
2014-01-14 05:19:00,46.5,42.8,29.76,WSW,256,1.0,2.0,87,0.00,,,0.01,Wunderground v.1.15,2014-01-14 10:19:00,
2014-01-14 05:25:00,46.7,43.0,29.76,SSW,212,1.0,5.0,87,0.00,,,0.01,Wunderground v.1.15,2014-01-14 10:25:00,
2014-01-14 05:30:00,46.7,43.0,29.76,SW,219,1.0,5.0,87,0.00,,,0.01,Wunderground v.1.15,2014-01-14 10:30:00,
2014-01-14 05:36:00,46.7,43.0,29.77,South,191,1.0,1.0,87,0.00,,,0.01,Wunderground v.1.15,2014-01-14 10:36:00,
2014-01-14 05:42:00,46.7,43.0,29.76,SSW,205,1.0,2.0,87,0.00,,,0.01,Wunderground v.1.15,2014-01-14 10:42:00,
2014-01-14 05:47:00,46.7,43.0,29.77,SSE,159,1.0,2.0,87,0.00,,,0.01,Wunderground v.1.15,2014-01-14 10:47:00,
2014-01-14 05:53:00,46.6,43.2,29.77,ESE,121,1.0,3.0,88,0.00,,,0.01,Wunderground v.1.15,2014-01-14 10:53:00,
2014-01-14 05:59:00,46.7,43.3,29.78,SSE,149,2.0,3.0,88,0.00,,,0.01,Wunderground v.1.15,2014-01-14 10:59:00,
2014-01-14 06:04:00,46.7,43.3,29.78,SSE,167,2.0,3.0,88,0.00,,,0.01,Wunderground v.1.15,2014-01-14 11:04:00,
2014-01-14 06:10:00,46.7,43.6,29.79,South,184,2.0,3.0,89,0.00,,,0.01,Wunderground v.1.15,2014-01-14 11:10:00,
2014-01-14 06:15:00,46.7,43.6,29.78,SSW,212,2.0,5.0,89,0.00,,,0.01,Wunderground v.1.15,2014-01-14 11:15:00,
2014-01-14 06:20:00,46.6,43.8,29.78,ESE,117,2.0,5.0,90,0.00,,,0.01,Wunderground v.1.15,2014-01-14 11:20:00,
2014-01-14 06:26:00,46.5,43.7,29.79,SSW,200,2.0,4.0,90,0.00,,,0.01,Wunderground v.1.15,2014-01-14 11:26:00,
2014-01-14 06:32:00,46.3,43.8,29.78,ESE,110,3.0,3.0,91,0.00,,,0.02,Wunderground v.1.15,2014-01-14 11:32:00,
2014-01-14 06:38:00,46.1,43.6,29.79,ESE,115,1.0,3.0,91,0.00,,,0.02,Wunderground v.1.15,2014-01-14 11:38:00,
2014-01-14 06:43:00,46.0,43.8,29.79,SSW,202,1.0,5.0,92,0.00,,,0.02,Wunderground v.1.15,2014-01-14 11:43:00,
2014-01-14 06:48:00,45.9,43.7,29.79,SSE,159,2.0,5.0,92,0.00,,,0.02,Wunderground v.1.15,2014-01-14 11:48:00,
2014-01-14 06:54:00,45.9,43.7,29.78,South,190,2.0,2.0,92,0.00,,,0.02,Wunderground v.1.15,2014-01-14 11:54:00,
2014-01-14 07:01:00,45.8,43.9,29.79,SE,139,2.0,2.0,93,0.00,,,0.02,Wunderground v.1.15,2014-01-14 12:01:00,
2014-01-14 07:06:00,45.8,43.9,29.79,SW,214,2.0,5.0,93,0.00,,,0.02,Wunderground v.1.15,2014-01-14 12:06:00,
2014-01-14 07:11:00,45.9,44.0,29.78,SE,136,3.0,3.0,93,0.00,,,0.02,Wunderground v.1.15,2014-01-14 12:11:00,
2014-01-14 07:17:00,46.0,44.1,29.78,South,190,3.0,7.0,93,0.00,,,0.02,Wunderground v.1.15,2014-01-14 12:17:00,
2014-01-14 07:23:00,46.1,44.2,29.78,SSW,205,4.0,4.0,93,0.00,,,0.02,Wunderground v.1.15,2014-01-14 12:23:00,
2014-01-14 07:29:00,46.2,44.3,29.77,ESE,111,4.0,6.0,93,0.00,,,0.02,Wunderground v.1.15,2014-01-14 12:29:00,
2014-01-14 07:35:00,46.2,44.3,29.78,SSW,193,3.0,4.0,93,0.00,,,0.02,Wunderground v.1.15,2014-01-14 12:35:00,
2014-01-14 07:40:00,46.2,44.3,29.77,SSE,152,2.0,4.0,93,0.00,,,0.02,Wunderground v.1.15,2014-01-14 12:40:00,
2014-01-14 07:45:00,46.1,44.2,29.78,SE,145,2.0,6.0,93,0.00,,,0.02,Wunderground v.1.15,2014-01-14 12:45:00,
2014-01-14 07:51:00,46.1,44.2,29.77,South,181,2.0,2.0,93,0.00,,,0.02,Wunderground v.1.15,2014-01-14 12:51:00,
2014-01-14 07:57:00,46.1,44.2,29.77,ESE,113,1.0,2.0,93,0.00,,,0.02,Wunderground v.1.15,2014-01-14 12:57:00,
2014-01-14 08:02:00,46.0,44.1,29.77,SW,217,1.0,3.0,93,0.00,,,0.02,Wunderground v.1.15,2014-01-14 13:02:00,
2014-01-14 08:08:00,46.0,44.1,29.76,East,90,1.0,3.0,93,0.00,,,0.02,Wunderground v.1.15,2014-01-14 13:08:00,
2014-01-14 08:13:00,46.0,44.1,29.77,South,190,1.0,2.0,93,0.00,,,0.02,Wunderground v.1.15,2014-01-14 13:13:00,
2014-01-14 08:18:00,45.9,44.0,29.77,ESE,115,1.0,2.0,93,0.00,,,0.02,Wunderground v.1.15,2014-01-14 13:18:00,
2014-01-14 08:24:00,45.9,44.0,29.76,SSW,197,1.0,2.0,93,0.00,,,0.02,Wunderground v.1.15,2014-01-14 13:24:00,
2014-01-14 08:30:00,45.9,44.0,29.76,SSW,201,1.0,4.0,93,0.00,,,0.02,Wunderground v.1.15,2014-01-14 13:30:00,
2014-01-14 08:36:00,45.9,44.0,29.76,SSW,205,2.0,3.0,93,0.00,,,0.02,Wunderground v.1.15,2014-01-14 13:36:00,
2014-01-14 08:41:00,45.9,44.0,29.76,South,191,1.0,4.0,93,0.00,,,0.02,Wunderground v.1.15,2014-01-14 13:41:00,
2014-01-14 08:47:00,45.9,44.0,29.75,SE,144,2.0,5.0,93,0.00,,,0.02,Wunderground v.1.15,2014-01-14 13:47:00,
2014-01-14 08:52:00,45.9,44.0,29.76,SSW,208,2.0,2.0,93,0.00,,,0.02,Wunderground v.1.15,2014-01-14 13:52:00,
2014-01-14 08:57:00,45.9,44.0,29.76,ESE,113,1.0,2.0,93,0.00,,,0.02,Wunderground v.1.15,2014-01-14 13:57:00,
2014-01-14 09:02:00,45.9,44.0,29.77,SSW,197,1.0,2.0,93,0.00,,,0.02,Wunderground v.1.15,2014-01-14 14:02:00,
2014-01-14 09:08:00,45.8,43.9,29.77,South,190,1.0,2.0,93,0.00,,,0.02,Wunderground v.1.15,2014-01-14 14:08:00,
2014-01-14 09:14:00,45.7,43.8,29.76,SSW,211,1.0,4.0,93,0.00,,,0.02,Wunderground v.1.15,2014-01-14 14:14:00,
2014-01-14 09:20:00,45.7,43.8,29.76,South,191,1.0,4.0,93,0.00,,,0.02,Wunderground v.1.15,2014-01-14 14:20:00,
2014-01-14 09:25:00,45.6,43.7,29.77,SSW,201,1.0,1.0,93,0.00,,,0.02,Wunderground v.1.15,2014-01-14 14:25:00,
2014-01-14 09:30:00,45.6,43.7,29.77,SW,215,1.0,2.0,93,0.00,,,0.02,Wunderground v.1.15,2014-01-14 14:30:00,
2014-01-14 09:36:00,45.5,43.6,29.76,SSW,201,1.0,2.0,93,0.00,,,0.03,Wunderground v.1.15,2014-01-14 14:36:00,
2014-01-14 09:41:00,45.5,43.9,29.77,SW,215,0.0,0.0,94,0.00,,,0.03,Wunderground v.1.15,2014-01-14 14:41:00,
2014-01-14 09:46:00,45.4,43.8,29.76,ESE,110,0.0,1.0,94,0.00,,,0.03,Wunderground v.1.15,2014-01-14 14:46:00,
2014-01-14 09:51:00,45.3,43.7,29.77,SSW,193,0.0,0.0,94,0.00,,,0.03,Wunderground v.1.15,2014-01-14 14:51:00,
2014-01-14 09:57:00,45.3,43.7,29.77,SSW,211,0.0,1.0,94,0.00,,,0.04,Wunderground v.1.15,2014-01-14 14:57:00,
2014-01-14 10:03:00,45.3,43.7,29.77,SSW,211,0.0,0.0,94,0.07,,,0.05,Wunderground v.1.15,2014-01-14 15:03:00,
2014-01-14 10:08:00,45.3,44.0,29.77,SSW,201,0.0,1.0,95,0.07,,,0.05,Wunderground v.1.15,2014-01-14 15:08:00,
2014-01-14 10:14:00,45.3,44.0,29.78,SW,221,1.0,1.0,95,0.12,,,0.07,Wunderground v.1.15,2014-01-14 15:14:00,
2014-01-14 10:20:00,45.4,44.1,29.75,South,184,1.0,1.0,95,0.10,,,0.07,Wunderground v.1.15,2014-01-14 15:20:00,
2014-01-14 10:26:00,45.5,44.2,29.76,South,184,0.0,0.0,95,0.07,,,0.08,Wunderground v.1.15,2014-01-14 15:26:00,
2014-01-14 10:31:00,45.7,44.4,29.76,South,184,0.0,0.0,95,0.07,,,0.08,Wunderground v.1.15,2014-01-14 15:31:00,
2014-01-14 10:37:00,45.8,44.4,29.76,SW,231,0.0,0.0,95,0.04,,,0.08,Wunderground v.1.15,2014-01-14 15:37:00,
2014-01-14 10:43:00,45.8,44.4,29.76,SSW,197,0.0,1.0,95,0.00,,,0.08,Wunderground v.1.15,2014-01-14 15:43:00,
2014-01-14 10:49:00,45.8,44.4,29.76,SSW,197,0.0,1.0,95,0.00,,,0.08,Wunderground v.1.15,2014-01-14 15:49:00,
2014-01-14 10:54:00,45.9,44.8,29.76,SSW,198,0.0,0.0,96,0.00,,,0.08,Wunderground v.1.15,2014-01-14 15:54:00,
2014-01-14 11:01:00,45.9,44.8,29.76,South,187,0.0,1.0,96,0.00,,,0.08,Wunderground v.1.15,2014-01-14 16:01:00,
2014-01-14 11:06:00,45.9,44.8,29.75,South,187,0.0,1.0,96,0.00,,,0.08,Wunderground v.1.15,2014-01-14 16:06:00,
2014-01-14 11:11:00,45.9,44.8,29.75,South,187,0.0,0.0,96,0.00,,,0.08,Wunderground v.1.15,2014-01-14 16:11:00,
2014-01-14 11:17:00,46.1,45.0,29.74,South,187,0.0,0.0,96,0.00,,,0.09,Wunderground v.1.15,2014-01-14 16:17:00,
2014-01-14 11:23:00,46.2,45.1,29.74,South,187,0.0,0.0,96,0.00,,,0.09,Wunderground v.1.15,2014-01-14 16:23:00,
2014-01-14 11:28:00,46.3,45.2,29.74,South,178,0.0,1.0,96,0.00,,,0.09,Wunderground v.1.15,2014-01-14 16:28:00,
2014-01-14 11:34:00,46.3,45.2,29.73,ESE,116,0.0,0.0,96,0.00,,,0.09,Wunderground v.1.15,2014-01-14 16:34:00,
2014-01-14 11:39:00,46.2,45.1,29.73,ESE,121,0.0,1.0,96,0.00,,,0.09,Wunderground v.1.15,2014-01-14 16:39:00,
2014-01-14 11:45:00,46.1,45.0,29.73,SE,127,0.0,1.0,96,0.00,,,0.09,Wunderground v.1.15,2014-01-14 16:45:00,
2014-01-14 11:51:00,46.0,44.9,29.73,ESE,121,0.0,1.0,96,0.00,,,0.09,Wunderground v.1.15,2014-01-14 16:51:00,
2014-01-14 11:57:00,45.9,44.8,29.73,ESE,121,0.0,1.0,96,0.00,,,0.09,Wunderground v.1.15,2014-01-14 16:57:00,
2014-01-14 12:02:00,45.8,44.7,29.72,ESE,121,0.0,0.0,96,0.00,,,0.09,Wunderground v.1.15,2014-01-14 17:02:00,
2014-01-14 12:07:00,45.7,44.6,29.72,ESE,121,0.0,0.0,96,0.00,,,0.10,Wunderground v.1.15,2014-01-14 17:07:00,
2014-01-14 12:13:00,45.6,44.5,29.72,ESE,121,0.0,0.0,96,0.00,,,0.10,Wunderground v.1.15,2014-01-14 17:13:00,
2014-01-14 12:18:00,45.5,44.4,29.72,ESE,121,0.0,0.0,96,0.06,,,0.11,Wunderground v.1.15,2014-01-14 17:18:00,
2014-01-14 12:23:00,45.4,44.3,29.72,ESE,121,0.0,0.0,96,0.07,,,0.12,Wunderground v.1.15,2014-01-14 17:23:00,
2014-01-14 12:28:00,45.3,44.2,29.72,ESE,121,0.0,0.0,96,0.07,,,0.12,Wunderground v.1.15,2014-01-14 17:28:00,
2014-01-14 12:33:00,45.3,44.2,29.72,ESE,121,0.0,0.0,96,0.09,,,0.13,Wunderground v.1.15,2014-01-14 17:33:00,
2014-01-14 12:39:00,45.5,44.7,29.73,WNW,283,0.0,1.0,97,0.10,,,0.14,Wunderground v.1.15,2014-01-14 17:39:00,
2014-01-14 12:45:00,45.6,44.8,29.72,WNW,294,0.0,2.0,97,0.14,,,0.16,Wunderground v.1.15,2014-01-14 17:45:00,
2014-01-14 12:51:00,45.6,44.8,29.72,WNW,287,1.0,1.0,97,0.11,,,0.17,Wunderground v.1.15,2014-01-14 17:51:00,
2014-01-14 12:56:00,45.6,44.8,29.72,WNW,293,1.0,1.0,97,0.09,,,0.17,Wunderground v.1.15,2014-01-14 17:56:00,
2014-01-14 13:02:00,45.6,44.8,29.72,WNW,290,1.0,1.0,97,0.08,,,0.18,Wunderground v.1.15,2014-01-14 18:02:00,
2014-01-14 13:07:00,45.6,44.8,29.72,WNW,301,1.0,2.0,97,0.17,,,0.20,Wunderground v.1.15,2014-01-14 18:07:00,
2014-01-14 13:12:00,45.5,44.7,29.72,WNW,297,2.0,3.0,97,0.16,,,0.21,Wunderground v.1.15,2014-01-14 18:12:00,
2014-01-14 13:17:00,45.5,44.7,29.72,NW,314,2.0,3.0,97,0.13,,,0.22,Wunderground v.1.15,2014-01-14 18:17:00,
2014-01-14 13:22:00,45.4,44.6,29.72,NW,307,2.0,2.0,97,0.11,,,0.23,Wunderground v.1.15,2014-01-14 18:22:00,
2014-01-14 13:27:00,45.3,44.5,29.73,West,262,2.0,2.0,97,0.08,,,0.23,Wunderground v.1.15,2014-01-14 18:27:00,
2014-01-14 13:33:00,45.2,44.4,29.73,NW,325,1.0,2.0,97,0.06,,,0.24,Wunderground v.1.15,2014-01-14 18:33:00,
2014-01-14 13:38:00,45.1,44.3,29.73,NW,316,1.0,2.0,97,0.06,,,0.24,Wunderground v.1.15,2014-01-14 18:38:00,
2014-01-14 13:44:00,45.0,44.2,29.74,West,281,1.0,2.0,97,0.06,,,0.25,Wunderground v.1.15,2014-01-14 18:44:00,
2014-01-14 13:50:00,44.9,44.1,29.73,WNW,297,1.0,2.0,97,0.08,,,0.26,Wunderground v.1.15,2014-01-14 18:50:00,
2014-01-14 13:56:00,44.9,44.1,29.73,WNW,300,1.0,3.0,97,0.08,,,0.27,Wunderground v.1.15,2014-01-14 18:56:00,
2014-01-14 14:02:00,44.8,44.0,29.73,WNW,300,1.0,1.0,97,0.12,,,0.28,Wunderground v.1.15,2014-01-14 19:02:00,
2014-01-14 14:07:00,44.8,44.0,29.73,NW,323,2.0,3.0,97,0.12,,,0.29,Wunderground v.1.15,2014-01-14 19:07:00,
2014-01-14 14:13:00,44.7,43.9,29.74,WNW,302,2.0,2.0,97,0.12,,,0.30,Wunderground v.1.15,2014-01-14 19:13:00,
2014-01-14 14:19:00,44.6,43.8,29.74,WNW,293,1.0,2.0,97,0.07,,,0.30,Wunderground v.1.15,2014-01-14 19:19:00,
2014-01-14 14:25:00,44.5,43.7,29.73,West,271,1.0,2.0,97,0.04,,,0.31,Wunderground v.1.15,2014-01-14 19:25:00,
2014-01-14 14:31:00,44.5,43.7,29.72,West,262,1.0,1.0,97,0.04,,,0.31,Wunderground v.1.15,2014-01-14 19:31:00,
2014-01-14 14:36:00,44.5,44.0,29.72,NW,307,1.0,1.0,98,0.04,,,0.31,Wunderground v.1.15,2014-01-14 19:36:00,
2014-01-14 14:42:00,44.5,44.0,29.70,WNW,293,0.0,0.0,98,0.00,,,0.31,Wunderground v.1.15,2014-01-14 19:42:00,
2014-01-14 14:47:00,44.6,44.1,29.72,West,278,0.0,1.0,98,0.00,,,0.32,Wunderground v.1.15,2014-01-14 19:47:00,
2014-01-14 14:52:00,44.7,44.2,29.71,West,267,0.0,1.0,98,0.00,,,0.32,Wunderground v.1.15,2014-01-14 19:52:00,
2014-01-14 14:58:00,44.7,44.2,29.71,WNW,283,0.0,1.0,98,0.00,,,0.32,Wunderground v.1.15,2014-01-14 19:58:00,
2014-01-14 15:03:00,44.7,44.2,29.71,WNW,282,0.0,0.0,98,0.00,,,0.32,Wunderground v.1.15,2014-01-14 20:03:00,
2014-01-14 15:09:00,44.7,44.2,29.70,WNW,283,0.0,0.0,98,0.00,,,0.32,Wunderground v.1.15,2014-01-14 20:09:00,
2014-01-14 15:14:00,44.7,44.2,29.69,WNW,282,0.0,0.0,98,0.00,,,0.32,Wunderground v.1.15,2014-01-14 20:14:00,
2014-01-14 15:20:00,44.8,44.3,29.69,ESE,118,0.0,0.0,98,0.00,,,0.32,Wunderground v.1.15,2014-01-14 20:20:00,
2014-01-14 15:25:00,44.8,44.3,29.69,ESE,118,0.0,0.0,98,0.00,,,0.32,Wunderground v.1.15,2014-01-14 20:25:00,
2014-01-14 15:30:00,44.8,44.3,29.70,ESE,117,0.0,0.0,98,0.00,,,0.32,Wunderground v.1.15,2014-01-14 20:30:00,
2014-01-14 15:36:00,44.8,44.3,29.71,SSE,152,0.0,1.0,98,0.00,,,0.32,Wunderground v.1.15,2014-01-14 20:36:00,
2014-01-14 15:42:00,44.8,44.3,29.72,SSE,152,0.0,0.0,98,0.00,,,0.32,Wunderground v.1.15,2014-01-14 20:42:00,
2014-01-14 15:47:00,44.7,44.2,29.72,SSE,152,0.0,0.0,98,0.00,,,0.32,Wunderground v.1.15,2014-01-14 20:47:00,
2014-01-14 15:53:00,44.6,44.1,29.72,SSE,152,0.0,0.0,98,0.00,,,0.32,Wunderground v.1.15,2014-01-14 20:53:00,
2014-01-14 15:59:00,44.5,44.0,29.73,SSE,152,0.0,0.0,98,0.00,,,0.32,Wunderground v.1.15,2014-01-14 20:59:00,
2014-01-14 16:06:00,44.5,44.0,29.73,SSE,158,0.0,0.0,98,0.00,,,0.32,Wunderground v.1.15,2014-01-14 21:06:00,
2014-01-14 16:12:00,44.5,44.0,29.74,South,190,0.0,0.0,98,0.00,,,0.32,Wunderground v.1.15,2014-01-14 21:12:00,
2014-01-14 16:18:00,44.4,43.9,29.73,SSW,193,0.0,0.0,98,0.00,,,0.32,Wunderground v.1.15,2014-01-14 21:18:00,
2014-01-14 16:23:00,44.4,43.9,29.75,West,260,0.0,1.0,98,0.00,,,0.32,Wunderground v.1.15,2014-01-14 21:23:00,
2014-01-14 16:29:00,44.3,43.8,29.75,WNW,295,0.0,2.0,98,0.00,,,0.32,Wunderground v.1.15,2014-01-14 21:29:00,
2014-01-14 16:34:00,44.3,43.8,29.75,NW,304,1.0,3.0,98,0.00,,,0.32,Wunderground v.1.15,2014-01-14 21:34:00,
2014-01-14 16:40:00,44.2,43.7,29.74,WNW,286,2.0,3.0,98,0.00,,,0.32,Wunderground v.1.15,2014-01-14 21:40:00,
2014-01-14 16:45:00,44.2,43.7,29.75,West,277,2.0,2.0,98,0.00,,,0.32,Wunderground v.1.15,2014-01-14 21:45:00,
2014-01-14 16:51:00,44.1,43.6,29.75,WNW,294,1.0,1.0,98,0.00,,,0.32,Wunderground v.1.15,2014-01-14 21:51:00,
2014-01-14 16:56:00,44.1,43.6,29.75,SSW,204,1.0,1.0,98,0.00,,,0.32,Wunderground v.1.15,2014-01-14 21:56:00,
2014-01-14 17:02:00,43.9,43.4,29.76,WNW,295,0.0,1.0,98,0.00,,,0.32,Wunderground v.1.15,2014-01-14 22:02:00,
2014-01-14 17:07:00,43.9,43.4,29.76,WNW,290,0.0,1.0,98,0.00,,,0.32,Wunderground v.1.15,2014-01-14 22:07:00,
2014-01-14 17:12:00,43.8,43.3,29.76,WNW,290,0.0,1.0,98,0.00,,,0.32,Wunderground v.1.15,2014-01-14 22:12:00,
2014-01-14 17:18:00,43.7,43.2,29.76,NW,305,1.0,2.0,98,0.00,,,0.32,Wunderground v.1.15,2014-01-14 22:18:00,
2014-01-14 17:24:00,43.7,43.2,29.77,NW,309,1.0,2.0,98,0.00,,,0.32,Wunderground v.1.15,2014-01-14 22:24:00,
2014-01-14 17:31:00,43.7,43.2,29.78,NW,312,1.0,2.0,98,0.00,,,0.32,Wunderground v.1.15,2014-01-14 22:31:00,
2014-01-14 17:37:00,43.6,43.1,29.77,West,280,2.0,3.0,98,0.00,,,0.32,Wunderground v.1.15,2014-01-14 22:37:00,
2014-01-14 17:43:00,43.6,43.1,29.78,NW,304,2.0,3.0,98,0.00,,,0.32,Wunderground v.1.15,2014-01-14 22:43:00,
2014-01-14 17:49:00,43.6,43.1,29.78,WNW,303,2.0,3.0,98,0.00,,,0.32,Wunderground v.1.15,2014-01-14 22:49:00,
2014-01-14 17:54:00,43.5,43.0,29.79,WNW,288,1.0,2.0,98,0.00,,,0.32,Wunderground v.1.15,2014-01-14 22:54:00,
2014-01-14 18:01:00,43.5,43.0,29.79,WNW,293,1.0,1.0,98,0.00,,,0.32,Wunderground v.1.15,2014-01-14 23:01:00,
2014-01-14 18:06:00,43.4,42.9,29.80,West,280,1.0,1.0,98,0.00,,,0.32,Wunderground v.1.15,2014-01-14 23:06:00,
2014-01-14 18:11:00,43.4,42.9,29.80,West,268,1.0,1.0,98,0.00,,,0.32,Wunderground v.1.15,2014-01-14 23:11:00,
2014-01-14 18:17:00,43.4,42.9,29.81,WNW,293,1.0,2.0,98,0.00,,,0.32,Wunderground v.1.15,2014-01-14 23:17:00,
2014-01-14 18:22:00,43.4,42.9,29.80,West,276,1.0,1.0,98,0.00,,,0.32,Wunderground v.1.15,2014-01-14 23:22:00,
2014-01-14 18:27:00,43.3,42.8,29.81,NW,318,1.0,1.0,98,0.00,,,0.32,Wunderground v.1.15,2014-01-14 23:27:00,
2014-01-14 18:33:00,43.1,42.6,29.81,WNW,294,1.0,1.0,98,0.00,,,0.32,Wunderground v.1.15,2014-01-14 23:33:00,
2014-01-14 18:39:00,42.9,42.4,29.81,WNW,286,1.0,3.0,98,0.00,,,0.32,Wunderground v.1.15,2014-01-14 23:39:00,
2014-01-14 18:45:00,42.7,42.2,29.81,WNW,288,1.0,1.0,98,0.00,,,0.33,Wunderground v.1.15,2014-01-14 23:45:00,
2014-01-14 18:51:00,42.5,42.0,29.82,WNW,288,0.0,0.0,98,0.00,,,0.33,Wunderground v.1.15,2014-01-14 23:51:00,
2014-01-14 18:56:00,42.4,41.9,29.82,WNW,286,0.0,1.0,98,0.00,,,0.33,Wunderground v.1.15,2014-01-14 23:56:00,
2014-01-14 19:02:00,42.3,41.8,29.83,WNW,294,1.0,1.0,98,0.00,,,0.33,Wunderground v.1.15,2014-01-15 00:02:00,
2014-01-14 19:08:00,42.2,41.7,29.83,West,276,1.0,1.0,98,0.00,,,0.33,Wunderground v.1.15,2014-01-15 00:08:00,
2014-01-14 19:13:00,42.1,41.6,29.84,WNW,291,1.0,1.0,98,0.00,,,0.33,Wunderground v.1.15,2014-01-15 00:13:00,
2014-01-14 19:18:00,42.1,41.6,29.84,WNW,284,1.0,1.0,98,0.00,,,0.33,Wunderground v.1.15,2014-01-15 00:18:00,
2014-01-14 19:24:00,42.0,41.5,29.84,WNW,290,1.0,1.0,98,0.00,,,0.33,Wunderground v.1.15,2014-01-15 00:24:00,
2014-01-14 19:29:00,41.8,41.3,29.84,WNW,291,0.0,1.0,98,0.00,,,0.33,Wunderground v.1.15,2014-01-15 00:29:00,
2014-01-14 19:34:00,41.6,41.1,29.84,WNW,290,0.0,0.0,98,0.00,,,0.33,Wunderground v.1.15,2014-01-15 00:34:00,
2014-01-14 19:40:00,41.3,40.8,29.84,WNW,291,0.0,0.0,98,0.00,,,0.33,Wunderground v.1.15,2014-01-15 00:40:00,
2014-01-14 19:45:00,41.1,40.6,29.84,WNW,291,0.0,0.0,98,0.00,,,0.33,Wunderground v.1.15,2014-01-15 00:45:00,
2014-01-14 19:51:00,40.8,40.3,29.84,WNW,291,0.0,0.0,98,0.00,,,0.33,Wunderground v.1.15,2014-01-15 00:51:00,
2014-01-14 19:57:00,40.5,40.0,29.84,WNW,290,0.0,0.0,98,0.00,,,0.33,Wunderground v.1.15,2014-01-15 00:57:00,
2014-01-14 20:02:00,40.4,39.9,29.85,WNW,291,0.0,0.0,98,0.00,,,0.33,Wunderground v.1.15,2014-01-15 01:02:00,
2014-01-14 20:07:00,40.5,40.2,29.85,WNW,291,0.0,0.0,99,0.00,,,0.33,Wunderground v.1.15,2014-01-15 01:07:00,
2014-01-14 20:13:00,40.7,40.4,29.85,WNW,291,0.0,0.0,99,0.00,,,0.33,Wunderground v.1.15,2014-01-15 01:13:00,
2014-01-14 20:18:00,40.7,40.4,29.85,WNW,290,0.0,0.0,99,0.00,,,0.33,Wunderground v.1.15,2014-01-15 01:18:00,
2014-01-14 20:23:00,40.7,40.4,29.85,WNW,290,0.0,0.0,99,0.00,,,0.33,Wunderground v.1.15,2014-01-15 01:23:00,
2014-01-14 20:28:00,40.9,40.6,29.85,WNW,290,0.0,0.0,99,0.00,,,0.33,Wunderground v.1.15,2014-01-15 01:28:00,
2014-01-14 20:34:00,40.6,40.3,29.85,WNW,290,0.0,0.0,99,0.00,,,0.33,Wunderground v.1.15,2014-01-15 01:34:00,
2014-01-14 20:39:00,40.3,40.0,29.85,WNW,291,0.0,0.0,99,0.00,,,0.33,Wunderground v.1.15,2014-01-15 01:39:00,
2014-01-14 20:44:00,40.2,39.9,29.85,WNW,291,0.0,0.0,99,0.00,,,0.33,Wunderground v.1.15,2014-01-15 01:44:00,
2014-01-14 20:50:00,40.0,39.7,29.85,WNW,290,0.0,0.0,99,0.00,,,0.33,Wunderground v.1.15,2014-01-15 01:50:00,
2014-01-14 20:55:00,40.2,39.9,29.86,WNW,291,0.0,0.0,99,0.00,,,0.33,Wunderground v.1.15,2014-01-15 01:55:00,
2014-01-14 21:01:00,40.5,40.2,29.85,West,273,0.0,0.0,99,0.00,,,0.33,Wunderground v.1.15,2014-01-15 02:01:00,
2014-01-14 21:06:00,40.4,40.1,29.86,West,281,0.0,0.0,99,0.00,,,0.33,Wunderground v.1.15,2014-01-15 02:06:00,
2014-01-14 21:11:00,40.1,39.8,29.86,WNW,295,0.0,0.0,99,0.00,,,0.33,Wunderground v.1.15,2014-01-15 02:11:00,
2014-01-14 21:16:00,39.9,39.6,29.87,WNW,295,0.0,0.0,99,0.00,,,0.33,Wunderground v.1.15,2014-01-15 02:16:00,
2014-01-14 21:21:00,39.8,39.5,29.87,WNW,295,0.0,0.0,99,0.00,,,0.33,Wunderground v.1.15,2014-01-15 02:21:00,
2014-01-14 21:26:00,39.9,39.6,29.86,WNW,295,0.0,0.0,99,0.00,,,0.33,Wunderground v.1.15,2014-01-15 02:26:00,
2014-01-14 21:32:00,39.7,39.4,29.87,WNW,296,0.0,0.0,99,0.00,,,0.33,Wunderground v.1.15,2014-01-15 02:32:00,
2014-01-14 21:37:00,39.5,39.2,29.87,WNW,300,0.0,0.0,99,0.00,,,0.33,Wunderground v.1.15,2014-01-15 02:37:00,
2014-01-14 21:42:00,39.2,38.9,29.87,West,274,0.0,0.0,99,0.00,,,0.33,Wunderground v.1.15,2014-01-15 02:42:00,
2014-01-14 21:47:00,39.1,38.8,29.87,WNW,298,0.0,0.0,99,0.00,,,0.33,Wunderground v.1.15,2014-01-15 02:47:00,
2014-01-14 21:52:00,39.1,38.8,29.87,WNW,290,0.0,0.0,99,0.00,,,0.33,Wunderground v.1.15,2014-01-15 02:52:00,
2014-01-14 21:58:00,39.1,38.8,29.87,WNW,291,0.0,0.0,99,0.00,,,0.33,Wunderground v.1.15,2014-01-15 02:58:00,
2014-01-14 22:03:00,38.9,38.6,29.87,WNW,290,0.0,1.0,99,0.00,,,0.33,Wunderground v.1.15,2014-01-15 03:03:00,
2014-01-14 22:09:00,38.6,38.3,29.88,WNW,291,0.0,1.0,99,0.00,,,0.33,Wunderground v.1.15,2014-01-15 03:09:00,
2014-01-14 22:15:00,38.5,38.2,29.88,WNW,292,0.0,0.0,99,0.00,,,0.33,Wunderground v.1.15,2014-01-15 03:15:00,
2014-01-14 22:21:00,38.4,38.1,29.88,WNW,291,0.0,0.0,99,0.00,,,0.33,Wunderground v.1.15,2014-01-15 03:21:00,
2014-01-14 22:26:00,38.1,37.8,29.89,WNW,293,0.0,0.0,99,0.00,,,0.33,Wunderground v.1.15,2014-01-15 03:26:00,
2014-01-14 22:32:00,37.3,36.8,29.89,WNW,290,0.0,0.0,98,0.00,,,0.33,Wunderground v.1.15,2014-01-15 03:32:00,
2014-01-14 22:38:00,36.5,36.0,29.89,WNW,291,0.0,0.0,98,0.00,,,0.33,Wunderground v.1.15,2014-01-15 03:38:00,
2014-01-14 22:44:00,37.0,36.5,29.89,WNW,291,0.0,0.0,98,0.00,,,0.33,Wunderground v.1.15,2014-01-15 03:44:00,
2014-01-14 22:49:00,37.6,37.3,29.89,WNW,291,0.0,0.0,99,0.00,,,0.33,Wunderground v.1.15,2014-01-15 03:49:00,
2014-01-14 22:55:00,37.6,37.3,29.89,WNW,292,0.0,0.0,99,0.00,,,0.33,Wunderground v.1.15,2014-01-15 03:55:00,
2014-01-14 23:01:00,37.5,37.2,29.89,WNW,293,0.0,0.0,99,0.00,,,0.33,Wunderground v.1.15,2014-01-15 04:01:00,
2014-01-14 23:06:00,36.9,36.6,29.90,WNW,292,0.0,0.0,99,0.00,,,0.33,Wunderground v.1.15,2014-01-15 04:06:00,
2014-01-14 23:12:00,36.4,36.1,29.90,WNW,293,0.0,0.0,99,0.00,,,0.33,Wunderground v.1.15,2014-01-15 04:12:00,
2014-01-14 23:18:00,36.5,36.2,29.89,WNW,292,0.0,0.0,99,0.00,,,0.33,Wunderground v.1.15,2014-01-15 04:18:00,
2014-01-14 23:23:00,36.6,36.3,29.90,WSW,240,0.0,0.0,99,0.00,,,0.33,Wunderground v.1.15,2014-01-15 04:23:00,
2014-01-14 23:28:00,36.5,36.2,29.90,WSW,240,0.0,0.0,99,0.00,,,0.33,Wunderground v.1.15,2014-01-15 04:28:00,
2014-01-14 23:34:00,36.6,36.3,29.90,WSW,240,0.0,0.0,99,0.00,,,0.33,Wunderground v.1.15,2014-01-15 04:34:00,
2014-01-14 23:40:00,36.4,36.1,29.90,WSW,240,0.0,0.0,99,0.00,,,0.33,Wunderground v.1.15,2014-01-15 04:40:00,
2014-01-14 23:45:00,36.3,36.0,29.89,WSW,240,0.0,0.0,99,0.00,,,0.33,Wunderground v.1.15,2014-01-15 04:45:00,
2014-01-14 23:51:00,36.2,35.9,29.89,WSW,241,0.0,0.0,99,0.00,,,0.33,Wunderground v.1.15,2014-01-15 04:51:00,
2014-01-14 23:56:00,35.7,35.4,29.89,WSW,240,0.0,0.0,99,0.00,,,0.33,Wunderground v.1.15,2014-01-15 04:56:00,